W8VMX Weather Reports


time (UTC)temp
C
wind
direction
speed
KPH
gust
KPH
rain 1hr
cm
rain 24hr
cm
rain mn
cm
humidity
%
barometer
mb
20260902213045 35 209 3.2 8.0 0.00 0.00 0.00 56 1017.5
20260902212528 35 0 0.0 8.0 0.00 0.00 0.00 55 1017.5
20260902212025 35 190 0.0 9.7 0.00 0.00 0.00 57 1017.6
20260902211542 35 182 1.6 9.7 0.00 0.00 0.00 54 1017.6
20260902211027 35 167 1.6 8.0 0.00 0.00 0.00 55 1017.5
20260902210527 35 0 3.2 11.3 0.00 0.00 0.00 54 1017.6
20260902210050 35 166 3.2 11.3 0.00 0.00 0.00 55 1017.6
20260902205525 35 208 1.6 11.3 0.00 0.00 0.00 55 1017.6
20260902205024 35 198 1.6 9.7 0.00 0.00 0.00 54 1017.7
20260902204549 35 220 0.0 8.0 0.00 0.00 0.00 55 1017.8
20260902204023 35 0 1.6 8.0 0.00 0.00 0.00 56 1017.7
20260902203524 35 196 0.0 9.7 0.00 0.00 0.00 57 1017.8
20260902203045 35 0 0.0 11.3 0.00 0.00 0.00 57 1017.8
20260902202524 35 172 3.2 11.3 0.00 0.00 0.00 57 1017.9
20260902202023 35 0 3.2 14.5 0.00 0.00 0.00 56 1017.8
20260902201603 35 151 3.2 14.5 0.00 0.00 0.00 57 1017.9
20260902201023 35 0 1.6 6.4 0.00 0.00 0.00 58 1017.9
20260902200527 35 161 0.0 11.3 0.00 0.00 0.00 56 1017.8
20260902200110 35 224 3.2 11.3 0.00 0.00 0.00 56 1017.9
20260902195524 35 109 3.2 12.9 0.00 0.00 0.00 55 1018.0
20260902195025 35 334 1.6 12.9 0.00 0.00 0.00 56 1018.0
20260902194543 35 270 4.8 12.9 0.00 0.00 0.00 55 1018.0
20260902194024 35 0 1.6 9.7 0.00 0.00 0.00 56 1018.1
20260902193527 35 179 3.2 11.3 0.00 0.00 0.00 56 1018.2
20260902193050 35 0 1.6 11.3 0.00 0.00 0.00 57 1018.2
20260902192524 35 145 1.6 11.3 0.00 0.00 0.00 57 1018.4
20260902192024 34 0 1.6 11.3 0.00 0.00 0.00 56 1018.4
20260902191550 34 227 1.6 8.0 0.00 0.00 0.00 58 1018.5
20260902191024 34 194 1.6 8.0 0.00 0.00 0.00 57 1018.5
20260902190525 34 217 1.6 8.0 0.00 0.00 0.00 58 1018.6
20260902190058 34 150 1.6 12.9 0.00 0.00 0.00 58 1018.7
20260902185523 34 0 1.6 12.9 0.00 0.00 0.00 58 1018.6
20260902185026 34 212 4.8 12.9 0.00 0.00 0.00 57 1018.7
20260902184548 34 259 3.2 12.9 0.00 0.00 0.00 58 1018.8
20260902184025 33 235 0.0 12.9 0.00 0.00 0.00 59 1018.7
20260902183525 33 0 3.2 12.9 0.00 0.00 0.00 57 1018.7
20260902183052 34 272 1.6 6.4 0.00 0.00 0.00 57 1018.8
20260902182527 34 0 0.0 8.0 0.00 0.00 0.00 57 1018.8
20260902182024 34 69 0.0 9.7 0.00 0.00 0.00 57 1018.9
20260902181544 34 0 0.0 9.7 0.00 0.00 0.00 57 1018.9
20260902181023 34 244 1.6 9.7 0.00 0.00 0.00 57 1018.8
20260902180523 34 194 1.6 12.9 0.00 0.00 0.00 58 1018.9
20260902180044 34 175 1.6 12.9 0.00 0.00 0.00 59 1018.9
20260902175524 34 0 1.6 6.4 0.00 0.00 0.00 59 1018.9
20260902175026 33 222 0.0 6.4 0.00 0.00 0.00 60 1018.9
20260902174549 33 0 0.0 8.0 0.00 0.00 0.00 62 1019.1
20260902174027 33 341 0.0 9.7 0.00 0.00 0.00 61 1019.2
20260902173524 33 0 1.6 9.7 0.00 0.00 0.00 60 1019.2
20260902173045 33 200 1.6 14.5 0.00 0.00 0.00 60 1019.3
20260902172523 33 240 1.6 14.5 0.00 0.00 0.00 63 1019.3
20260902172028 33 0 0.0 11.3 0.00 0.00 0.00 65 1019.3
20260902171548 32 229 1.6 11.3 0.00 0.00 0.00 67 1019.4
20260902171028 32 139 3.2 16.1 0.00 0.00 0.00 66 1019.4
20260902170527 32 163 4.8 16.1 0.00 0.00 0.00 65 1019.4
20260902170051 32 242 3.2 16.1 0.00 0.00 0.00 65 1019.5
20260902165524 32 0 1.6 6.4 0.00 0.00 0.00 68 1019.6
20260902165028 32 141 1.6 11.3 0.00 0.00 0.00 67 1019.7
20260902164548 32 171 3.2 11.3 0.00 0.00 0.00 67 1019.7
20260902164024 32 0 1.6 9.7 0.00 0.00 0.00 68 1019.6
20260902163522 32 0 3.2 9.7 0.00 0.00 0.00 67 1019.6
20260902163044 32 152 3.2 9.7 0.00 0.00 0.00 67 1019.7
20260902162524 31 0 1.6 8.0 0.00 0.00 0.00 71 1019.7
20260902162027 31 306 3.2 8.0 0.00 0.00 0.00 69 1019.7
20260902161553 31 0 3.2 11.3 0.00 0.00 0.00 69 1019.8
20260902161025 31 232 1.6 11.3 0.00 0.00 0.00 69 1019.8
20260902160528 31 252 3.2 11.3 0.00 0.00 0.00 69 1019.8
20260902160044 31 0 6.4 11.3 0.00 0.00 0.00 69 1019.9
20260902155525 31 202 1.6 6.4 0.00 0.00 0.00 70 1019.9
20260902155025 30 192 0.0 8.0 0.00 0.00 0.00 71 1019.9
20260902154547 30 289 1.6 12.9 0.00 0.00 0.00 71 1019.9
20260902154024 30 0 3.2 12.9 0.00 0.00 0.00 72 1020.0
20260902153528 30 279 1.6 12.9 0.00 0.00 0.00 73 1020.0
20260902153050 30 169 3.2 12.9 0.00 0.00 0.00 72 1020.1
20260902152528 30 195 3.2 12.9 0.00 0.00 0.00 73 1020.2
20260902152023 30 340 1.6 8.0 0.00 0.00 0.00 74 1020.2
20260902151548 30 219 1.6 9.7 0.00 0.00 0.00 74 1020.1
20260902151027 29 220 1.6 12.9 0.00 0.00 0.00 75 1020.2
20260902150524 29 232 3.2 12.9 0.00 0.00 0.00 74 1020.2
20260902150048 29 263 1.6 9.7 0.00 0.00 0.00 76 1020.3
20260902145524 29 159 3.2 9.7 0.00 0.00 0.00 75 1020.3
20260902145032 28 188 1.6 4.8 0.00 0.00 0.00 76 1020.3
20260902144544 28 199 1.6 6.4 0.00 0.00 0.00 77 1020.3
20260902144024 28 255 1.6 6.4 0.00 0.00 0.00 77 1020.3
20260902143523 28 223 0.0 8.0 0.00 0.00 0.00 78 1020.2
20260902143048 28 180 1.6 8.0 0.00 0.00 0.00 78 1020.3
20260902142525 28 200 1.6 8.0 0.00 0.00 0.00 78 1020.2
20260902142023 27 147 1.6 8.0 0.00 0.00 0.00 79 1020.2
20260902141544 27 0 1.6 6.4 0.00 0.00 0.00 79 1020.1
20260902141024 27 241 1.6 9.7 0.00 0.00 0.00 79 1020.2
20260902140524 27 180 3.2 9.7 0.00 0.00 0.00 80 1020.2
20260902140046 27 215 1.6 8.0 0.00 0.00 0.00 80 1020.2
20260902135524 27 0 3.2 8.0 0.00 0.00 0.00 80 1020.2
20260902135025 27 178 0.0 4.8 0.00 0.00 0.00 81 1020.2
20260902134545 27 244 0.0 6.4 0.00 0.00 0.00 82 1020.1
20260902134024 27 262 0.0 9.7 0.00 0.00 0.00 82 1020.1
20260902133526 26 0 3.2 12.9 0.00 0.00 0.00 82 1020.2
20260902133047 26 184 1.6 12.9 0.00 0.00 0.00 83 1020.2
20260902132524 26 207 1.6 9.7 0.00 0.00 0.00 83 1020.2
20260902132024 26 221 1.6 8.0 0.00 0.00 0.00 84 1020.0
20260902131543 26 192 1.6 8.0 0.00 0.00 0.00 85 1020.1
20260902131025 25 0 1.6 6.4 0.00 0.00 0.00 86 1020.1
20260902130524 25 0 1.6 4.8 0.00 0.00 0.00 87 1020.1
20260902130048 25 211 0.0 4.8 0.00 0.00 0.00 88 1020.1
20260902125525 25 0 0.0 4.8 0.00 0.00 0.00 89 1020.0
20260902125025 24 208 0.0 3.2 0.00 0.00 0.00 91 1020.1
20260902124557 23 200 1.6 3.2 0.00 0.00 0.00 93 1020.0
20260902124023 23 0 0.0 3.2 0.00 0.00 0.00 95 1019.9
20260902123523 23 214 0.0 3.2 0.00 0.00 0.00 96 1020.0
20260902123050 22 0 0.0 0.0 0.00 0.00 0.00 98 1019.9
20260902122525 22 0 0.0 0.0 0.00 0.00 0.00 98 1019.9
20260902122025 22 0 0.0 0.0 0.00 0.00 0.00 98 1019.9
20260902121541 22 0 0.0 0.0 0.00 0.00 0.00 98 1019.9
20260902121025 22 0 0.0 0.0 0.00 0.00 0.00 98 1019.8
20260902120527 21 0 0.0 0.0 0.00 0.00 0.00 98 1019.8
20260902120046 21 0 0.0 0.0 0.00 0.00 0.00 97 1019.8
20260902115524 21 0 0.0 0.0 0.00 0.00 0.00 97 1019.8
20260902115029 21 0 0.0 0.0 0.00 0.00 0.00 97 1019.7
20260902114543 21 0 0.0 0.0 0.00 0.00 0.00 97 1019.6
20260902114027 21 0 0.0 0.0 0.00 0.00 0.00 97 1019.6
20260902113523 21 0 0.0 0.0 0.00 0.00 0.00 97 1019.5
20260902113050 21 0 0.0 0.0 0.00 0.00 0.00 97 1019.4
20260902112524 21 0 0.0 0.0 0.00 0.00 0.00 97 1019.4
20260902112025 21 0 0.0 0.0 0.00 0.00 0.00 97 1019.4
20260902111552 21 0 0.0 0.0 0.00 0.00 0.00 97 1019.3
20260902111025 21 0 0.0 0.0 0.00 0.00 0.00 97 1019.2
20260902110527 21 0 0.0 0.0 0.00 0.00 0.00 97 1019.2
20260902110044 21 0 0.0 0.0 0.00 0.00 0.00 97 1019.3
20260902105526 21 0 0.0 0.0 0.00 0.00 0.00 97 1019.2
20260902105024 21 0 0.0 0.0 0.00 0.00 0.00 97 1019.3
20260902104545 21 0 0.0 0.0 0.00 0.00 0.00 97 1019.4
20260902104026 21 0 0.0 0.0 0.00 0.00 0.00 97 1019.4
20260902103527 21 0 0.0 0.0 0.00 0.00 0.00 96 1019.3
20260902103045 21 0 0.0 0.0 0.00 0.00 0.00 96 1019.2
20260902102525 21 0 0.0 0.0 0.00 0.00 0.00 96 1019.3
20260902102026 21 0 0.0 0.0 0.00 0.00 0.00 96 1019.3
20260902101554 21 0 0.0 0.0 0.00 0.00 0.00 96 1019.3
20260902101026 21 0 0.0 0.0 0.00 0.00 0.00 96 1019.3
20260902100527 21 0 0.0 0.0 0.00 0.00 0.00 96 1019.3
20260902100045 21 0 0.0 0.0 0.00 0.00 0.00 97 1019.3
20260902095522 21 0 0.0 0.0 0.00 0.00 0.00 96 1019.3
20260902095023 21 0 0.0 0.0 0.00 0.00 0.00 96 1019.2
20260902094550 21 0 0.0 0.0 0.00 0.00 0.00 96 1019.2
20260902094024 21 0 0.0 0.0 0.00 0.00 0.00 96 1019.2
20260902093524 21 0 0.0 0.0 0.00 0.00 0.00 96 1019.3
20260902093045 21 0 0.0 0.0 0.00 0.00 0.00 96 1019.3
20260902092524 21 0 0.0 0.0 0.00 0.00 0.00 97 1019.3
20260902092025 21 0 0.0 0.0 0.00 0.00 0.00 97 1019.2
20260902091550 21 0 0.0 0.0 0.00 0.00 0.00 96 1019.1
20260902091031 21 0 0.0 0.0 0.00 0.00 0.00 96 1019.1
20260902090524 21 0 0.0 0.0 0.00 0.00 0.00 96 1019.0
20260902090043 21 0 0.0 0.0 0.00 0.00 0.00 96 1019.1
20260902085525 21 0 0.0 0.0 0.00 0.00 0.00 96 1018.8
20260902085025 22 0 0.0 0.0 0.00 0.00 0.00 96 1018.9
20260902084552 22 0 0.0 0.0 0.00 0.00 0.00 96 1018.7
20260902084025 22 0 0.0 0.0 0.00 0.00 0.00 96 1018.9
20260902083524 22 0 0.0 0.0 0.00 0.00 0.00 95 1018.6
20260902083043 22 0 0.0 0.0 0.00 0.00 0.00 95 1018.5
20260902082523 22 0 0.0 0.0 0.00 0.00 0.00 96 1018.6
20260902082024 22 0 0.0 0.0 0.00 0.00 0.00 96 1018.5
20260902081549 22 0 0.0 0.0 0.00 0.00 0.00 96 1018.6
20260902081023 22 0 0.0 0.0 0.00 0.00 0.00 95 1018.4
20260902080523 22 0 0.0 0.0 0.00 0.00 0.00 95 1018.4
20260902080044 22 0 0.0 0.0 0.00 0.00 0.00 95 1018.3
20260902075525 22 0 0.0 0.0 0.00 0.00 0.00 95 1018.4
20260902075024 22 0 0.0 0.0 0.00 0.00 0.00 95 1018.3
20260902074545 22 0 0.0 0.0 0.00 0.00 0.00 95 1018.3
20260902074025 22 0 0.0 0.0 0.00 0.00 0.00 95 1018.3
20260902073527 22 0 0.0 0.0 0.00 0.00 0.00 95 1018.4
20260902073044 22 0 0.0 0.0 0.00 0.00 0.00 95 1018.4
20260902072524 22 0 0.0 0.0 0.00 0.00 0.00 95 1018.5
20260902072031 22 0 0.0 0.0 0.00 0.00 0.00 95 1018.3
20260902071542 22 0 0.0 0.0 0.00 0.00 0.00 95 1018.3
20260902071032 22 0 0.0 0.0 0.00 0.00 0.00 95 1018.4
20260902070522 22 0 0.0 0.0 0.00 0.00 0.00 95 1018.4
20260902070056 22 0 0.0 0.0 0.00 0.00 0.00 95 1018.4
20260902065528 22 0 0.0 0.0 0.00 0.00 0.00 94 1018.4
20260902065024 22 0 0.0 0.0 0.00 0.00 0.00 94 1018.4
20260902064555 22 0 0.0 0.0 0.00 0.00 0.00 94 1018.3
20260902064024 22 0 0.0 0.0 0.00 0.00 0.00 94 1018.3
20260902063529 22 0 0.0 0.0 0.00 0.00 0.00 94 1018.3
20260902063047 22 0 0.0 0.0 0.00 0.00 0.00 94 1018.2
20260902062523 22 0 0.0 0.0 0.00 0.00 0.00 93 1018.3
20260902062027 23 0 0.0 0.0 0.00 0.00 0.00 93 1018.3
20260902061556 23 0 0.0 0.0 0.00 0.00 0.00 93 1018.4
20260902061026 23 0 0.0 0.0 0.00 0.00 0.00 93 1018.4
20260902060523 23 0 0.0 0.0 0.00 0.00 0.00 93 1018.5
20260902060047 23 0 0.0 0.0 0.00 0.00 0.00 93 1018.5
20260902055527 23 0 0.0 0.0 0.00 0.00 0.00 93 1018.4
20260902055024 23 0 0.0 0.0 0.00 0.00 0.00 92 1018.5
20260902054547 23 0 0.0 0.0 0.00 0.00 0.00 92 1018.5
20260902054026 23 0 0.0 0.0 0.00 0.00 0.00 92 1018.6
20260902053524 23 0 0.0 0.0 0.00 0.00 0.00 92 1018.4
20260902053048 23 0 0.0 0.0 0.00 0.00 0.00 92 1018.5
20260902052528 23 0 0.0 0.0 0.00 0.00 0.00 92 1018.5
20260902052024 23 0 0.0 0.0 0.00 0.00 0.00 92 1018.5
20260902051553 23 0 0.0 0.0 0.00 0.00 0.00 92 1018.6
20260902051024 23 0 0.0 0.0 0.00 0.00 0.00 92 1018.5
20260902050525 23 0 0.0 0.0 0.00 0.00 0.00 92 1018.5
20260902050053 23 0 0.0 0.0 0.00 0.00 0.00 92 1018.5
20260902045524 23 0 0.0 0.0 0.00 0.00 0.00 92 1018.6
20260902045024 23 0 0.0 0.0 0.00 0.00 0.00 91 1018.4
20260902044542 23 0 0.0 0.0 0.00 0.00 0.00 92 1018.4
20260902044024 23 0 0.0 0.0 0.00 0.00 0.00 91 1018.5
20260902043525 24 0 0.0 0.0 0.00 0.00 0.00 91 1018.4
20260902043051 24 0 0.0 0.0 0.00 0.00 0.00 91 1018.4
20260902042525 24 0 0.0 0.0 0.00 0.00 0.00 90 1018.5
20260902042024 24 0 0.0 0.0 0.00 0.00 0.00 90 1018.6
20260902041557 24 0 0.0 0.0 0.00 0.00 0.00 89 1018.6
20260902041023 24 0 0.0 0.0 0.00 0.00 0.00 89 1018.6
20260902040526 24 0 0.0 0.0 0.00 0.00 0.00 89 1018.6
20260902040045 24 0 0.0 0.0 0.00 0.00 0.00 89 1018.5
20260902035535 25 0 0.0 0.0 0.00 0.00 0.00 89 1018.5
20260902035023 25 0 0.0 0.0 0.00 0.00 0.00 89 1018.6
20260902034548 25 0 0.0 0.0 0.00 0.00 0.00 89 1018.5
20260902034028 25 0 0.0 0.0 0.00 0.00 0.00 88 1018.6
20260902033524 25 0 0.0 0.0 0.00 0.00 0.00 88 1018.5
20260902033057 25 0 0.0 0.0 0.00 0.00 0.00 87 1018.6
20260902032528 25 0 0.0 0.0 0.00 0.00 0.00 86 1018.6
20260902032026 25 0 0.0 0.0 0.00 0.00 0.00 85 1018.4
20260902031546 26 0 0.0 0.0 0.00 0.00 0.00 85 1018.4
20260902031024 26 0 0.0 0.0 0.00 0.00 0.00 84 1018.4
20260902030522 26 0 0.0 0.0 0.00 0.00 0.00 84 1018.4
20260902030044 26 0 0.0 0.0 0.00 0.00 0.00 84 1018.4
20260902025524 26 0 0.0 0.0 0.00 0.00 0.00 84 1018.3
20260902025028 26 0 0.0 0.0 0.00 0.00 0.00 84 1018.4
20260902024547 26 0 0.0 0.0 0.00 0.00 0.00 84 1018.4
20260902024025 26 0 0.0 0.0 0.00 0.00 0.00 82 1018.4
20260902023523 26 0 0.0 0.0 0.00 0.00 0.00 82 1018.3
20260902023044 26 0 0.0 0.0 0.00 0.00 0.00 82 1018.3
20260902022523 26 0 0.0 0.0 0.00 0.00 0.00 82 1018.3
20260902022024 26 0 0.0 0.0 0.00 0.00 0.00 82 1018.4
20260902021604 26 0 0.0 0.0 0.00 0.00 0.00 82 1018.3
20260902021024 26 0 0.0 0.0 0.00 0.00 0.00 83 1018.3
20260902020527 26 0 0.0 0.0 0.00 0.00 0.00 83 1018.3
20260902020050 26 0 0.0 0.0 0.00 0.00 0.00 83 1018.3
20260902015524 27 0 0.0 0.0 0.00 0.00 0.00 83 1018.3
20260902015025 27 0 0.0 0.0 0.00 0.00 0.00 83 1018.3
20260902014544 27 0 0.0 0.0 0.00 0.00 0.00 82 1018.3
20260902014028 27 0 0.0 0.0 0.00 0.00 0.00 81 1018.3
20260902013526 27 0 0.0 0.0 0.00 0.00 0.00 79 1018.3
20260902013043 27 0 0.0 0.0 0.00 0.00 0.00 79 1018.3
20260902012524 27 0 0.0 0.0 0.00 0.00 0.00 80 1018.3
20260902012026 27 0 0.0 0.0 0.00 0.00 0.00 79 1018.1
20260902011543 27 0 0.0 0.0 0.00 0.00 0.00 79 1018.1
20260902011024 27 0 0.0 0.0 0.00 0.00 0.00 79 1018.1
20260902010524 27 0 0.0 0.0 0.00 0.00 0.00 79 1018.0
20260902010058 27 0 0.0 0.0 0.00 0.00 0.00 78 1017.9
20260902005525 28 0 0.0 0.0 0.00 0.00 0.00 79 1017.9
20260902005024 28 0 0.0 0.0 0.00 0.00 0.00 78 1017.9
20260902004547 28 0 0.0 0.0 0.00 0.00 0.00 77 1017.9
20260902004024 28 0 0.0 0.0 0.00 0.00 0.00 77 1017.8
20260902003527 28 0 0.0 0.0 0.00 0.00 0.00 77 1017.9
20260902003045 29 0 0.0 0.0 0.00 0.00 0.00 76 1017.9
20260902002524 29 0 0.0 0.0 0.00 0.00 0.00 74 1017.9
20260902002028 30 0 0.0 0.0 0.00 0.00 0.00 73 1017.9
20260902001547 30 0 0.0 0.0 0.00 0.00 0.00 72 1018.0
20260902001023 30 0 0.0 0.0 0.00 0.00 0.00 70 1018.0
20260902000525 30 0 0.0 0.0 0.00 0.00 0.00 70 1018.0
20260902000053 31 0 0.0 0.0 0.00 0.00 0.00 69 1018.0
20260901235525 31 0 0.0 0.0 0.00 0.00 0.00 68 1018.0
20260901235026 31 0 0.0 0.0 0.00 0.00 0.00 67 1018.0
20260901234606 31 0 0.0 0.0 0.00 0.00 0.00 67 1018.1
20260901234024 31 0 0.0 0.0 0.00 0.00 0.00 66 1018.1
20260901233524 31 0 0.0 0.0 0.00 0.00 0.00 66 1018.0
20260901233048 31 0 0.0 0.0 0.00 0.00 0.00 65 1018.2
20260901232524 31 0 0.0 1.6 0.00 0.00 0.00 64 1018.2
20260901232027 32 0 0.0 1.6 0.00 0.00 0.00 64 1018.1
20260901231550 32 0 0.0 9.7 0.00 0.00 0.00 63 1018.1
20260901231026 32 0 0.0 9.7 0.00 0.00 0.00 63 1018.2
20260901230529 32 237 1.6 9.7 0.00 0.00 0.00 61 1018.2
20260901230120 32 187 0.0 4.8 0.00 0.00 0.00 61 1018.2
20260901225525 32 0 0.0 4.8 0.00 0.00 0.00 62 1018.1
20260901225025 32 0 0.0 4.8 0.00 0.00 0.00 61 1018.1
20260901224542 32 200 0.0 3.2 0.00 0.00 0.00 63 1018.1
20260901224029 32 220 0.0 4.8 0.00 0.00 0.00 63 1018.0
20260901223525 32 223 0.0 4.8 0.00 0.00 0.00 63 1018.1
20260901223105 32 145 1.6 4.8 0.00 0.00 0.00 61 1018.0
20260901222524 33 0 0.0 6.4 0.00 0.00 0.00 59 1018.0
20260901222026 33 175 0.0 6.4 0.00 0.00 0.00 59 1018.0
20260901221543 33 0 0.0 6.4 0.00 0.00 0.00 58 1018.1
20260901221024 33 200 1.6 6.4 0.00 0.00 0.00 60 1018.0
20260901220526 33 198 1.6 6.4 0.00 0.00 0.00 59 1017.9
20260901220051 33 198 1.6 8.0 0.00 0.00 0.00 57 1018.0
20260901215525 34 0 0.0 9.7 0.00 0.00 0.00 59 1018.0
20260901215027 34 0 1.6 9.7 0.00 0.00 0.00 55 1018.0
20260901214545 34 229 1.6 9.7 0.00 0.00 0.00 56 1018.0
20260901214027 35 0 1.6 6.4 0.00 0.00 0.00 59 1017.8
20260901213524 35 254 1.6 6.4 0.00 0.00 0.00 55 1018.0